Regional Weather Roundup
Issued by NWS Northern Indiana

Home | Current Version | Previous Version | Text Only | Print | Product List | Glossary Off
Versions: 1 2 3 4 5 6 7 8 9 10 11 12 13 14 15 16 17 18 19 20 21 22 23 24 25 26 27 28 29 30 31 32 33 34 35 36 37 38 39 40 41 42 43 44 45 46 47 48 49 50

000
ASUS43 KIWX 231010
RWRIWX

KIWX WEATHER ROUNDUP
NATIONAL WEATHER SERVICE NORTHERN INDIANA
600 AM EDT MON APR 23 2018

NOTE: "FAIR" INDICATES FEW OR NO CLOUDS BELOW 12,000 FEET WITH NO
SIGNIFICANT WEATHER AND/OR OBSTRUCTIONS TO VISIBILITY.

* THESE STATIONS ARE NOT UNDER NWS QUALITY CONTROL. THEY ALSO MAY NOT
  REPORT WEATHER SUCH AS PRECIPITATION OR FOG.

INZ001>027-231100-
NORTHERN INDIANA

CITY           SKY/WX    TMP DP  RH WIND       PRES   REMARKS
GARY*          MOCLDY    41  32  70 NE8       30.20S
VALPARAISO     FAIR      43  26  51 NE7       30.18F
MICHIGAN CITY* FAIR      43  23  45 NE3       30.21S
LAPORTE*       FAIR      42  24  50 NE6       30.19F
KNOX*          FAIR      37  27  65 NE5       30.17F
SOUTH BEND     FAIR      43  22  43 E3        30.21S
GOSHEN         FAIR      40  25  55 NE6       30.19S
MONTICELLO*    FAIR      45  25  45 NE8       30.13F
LOGANSPORT*    FAIR      43  27  52 NE7       30.14F
ROCHESTER*     FAIR      45  28  53 NE6       30.16F
WARSAW*        FAIR      41  28  60 E8        30.17F
AUBURN*        FAIR      39  30  70 NE9       30.20S
FORT WAYNE     MOCLDY    41  29  62 NE9       30.18S
HUNTINGTON*    FAIR      41  28  58 NE6       30.16F
PERU/GRISSOM   FAIR     N/A N/A N/A NE10        N/A
MARION*        FAIR      43  28  56 E14       30.14S

$$
INZ028>050-231100-
CENTRAL INDIANA

CITY           SKY/WX    TMP DP  RH WIND       PRES   REMARKS
LAFAYETTE      FAIR      45  27  49 NE14      30.11F
KOKOMO*        FAIR      42  30  62 NE10      30.13F
MUNCIE*        FAIR      44  30  57 NE8       30.12F
INDIANAPOLIS   CLOUDY    51  30  44 NE13      30.08S

$$
MIZ043>046-050>051-056>058-064>065-071>073-077>080-231100-
SOUTHWEST LOWER MICHIGAN

CITY           SKY/WX    TMP DP  RH WIND       PRES   REMARKS
BATTLE CREEK   FAIR      42  24  49 E6        30.23S
BENTON HARBOR  FAIR      42  22  44 E3        30.22R
COLDWATER*     FAIR      38  24  57 NE5       30.21S
HILLSDALE*     FAIR      41  23  48 E8        30.21R
HOLLAND        FAIR      42  28  57 E5        30.25S
GRAND RAPIDS   FAIR      39  26  59 NE8       30.26S
KALAMAZOO      FAIR      41  23  48 CALM      30.23S
STURGIS*       FAIR      41  25  53 NE6       30.20S
THREE RIVERS*  FAIR      42  25  50 NE6       30.22S

$$
OHZ001>008-015>018-024>025-231100-
NORTHWEST OHIO

CITY           SKY/WX    TMP DP  RH WIND       PRES   REMARKS
WAUSEON*       FAIR      41  28  60 NE10      30.21S
DEFIANCE       FAIR      41  30  65 NE7       30.21R
FINDLAY        FAIR      44  27  51 NE9       30.18S
TOLEDO EXPRESS FAIR      42  34  73 NE6       30.21F
TOLEDO METCALF FAIR      42  35  76 NE6       30.23S
LIMA           FAIR      40  29  64 NE6       30.16S

$$
AND FOR LAKE MICHIGAN COASTAL AND OPEN LAKE BUOY OBSERVATIONS

STATION/POSITION TEMP    WIND        PRES    VSBY  WAVE
                 AIR SEA DIR/SP/G                  HT/PER
                 (F)     (DEG/KT/KT) (MB)    (MI)  (FT/S)
CALUMET HARBOR    41     360/  6/  7 1022.3R
MICHIGAN CITY     44      40/  9/  9   N/A
BURNS HARBOR      43      70/  6/  9 1023.0S
SAINT JOSEPH      44      40/  2/  4 1024.0

$$
&&



USA.gov is the U.S. government's official web portal to all federal, state and local government web resources and services.